Theta_e
312 312 312 312 312 312 312 311 311 312 311 311 311 310 310 312 311 300 294 299 302 309 309 301 301 303 302 298 302 302 293 289 292 295 296 299 299 303 306 306 307 313 314 320 328
310 311 311 311 312 311 311 311 311 311 311 312 312 309 310 311 300 295 303 312 311 311 300 297 295 298 293 294 296 293 288 288 294 297 295 298 298 300 302 302 303 309 318 325 329
309 310 311 312 311 311 311 312 312 311 311 310 311 311 311 305 292 291 309 313 310 305 300 300 298 296 289 292 292 290 287 291 293 296 297 296 298 300 300 299 302 304 307 322 327
310 311 313 312 311 311 311 311 312 312 311 311 311 311 311 300 279 295 308 310 310 300 297 293 294 289 286 286 292 286 290 292 293 294 294 293 296 295 298 299 305 306 310 315 326
310 311 312 311 311 311 311 312 312 312 312 312 311 310 303 291 290 301 309 306 299 297 293 291 288 289 284 286 288 286 289 292 292 293 292 294 292 292 293 299 303 306 310 311 316
312 311 311 311 311 311 311 312 312 312 312 311 311 310 297 287 298 300 300 298 297 294 291 292 289 290 287 287 285 288 288 288 290 290 292 289 290 293 292 300 300 305 309 310 313
312 311 310 311 311 311 312 312 312 313 312 312 311 304 296 291 298 297 299 297 297 295 291 293 292 289 288 284 289 288 284 286 287 287 287 290 286 288 292 298 298 302 306 310 311
311 312 311 311 311 312 312 313 313 312 313 312 311 303 291 299 297 297 297 296 297 297 295 295 295 291 288 289 286 282 282 276 283 285 287 290 279 287 293 295 296 299 305 309 309
312 312 312 312 312 311 312 312 312 312 310 309 301 298 287 300 293 297 296 294 296 296 296 298 295 288 287 281 278 279 272 275 279 286 285 285 278 285 290 291 292 297 303 309 308
312 311 311 311 311 311 311 311 308 300 299 300 298 287 288 286 292 294 296 297 295 294 292 291 289 285 281 279 270 268 274 275 275 280 284 282 283 286 291 292 294 295 302 307 310
311 310 310 310 310 310 300 292 287 284 287 284 283 285 287 290 292 290 295 294 294 291 284 289 282 278 280 281 280 276 276 274 277 281 280 281 281 285 289 292 294 298 302 305 309
309 309 308 309 310 306 295 289 288 288 282 287 287 287 289 289 284 289 295 289 288 283 287 283 279 283 285 283 280 278 274 272 278 281 280 278 278 282 288 288 290 295 302 303 305
310 308 308 309 307 297 292 291 294 290 278 281 286 286 287 289 286 287 293 292 285 284 283 280 282 287 284 280 279 278 276 275 275 280 280 278 277 281 285 291 292 295 303 305 304
310 309 309 308 295 293 290 295 293 287 265 274 281 285 288 289 283 292 296 292 287 283 284 282 286 284 283 279 280 276 281 280 278 274 267 279 268 278 283 288 293 299 303 301 300
311 310 310 302 292 290 293 293 290 284 259 277 280 290 286 282 285 288 295 292 286 285 284 282 284 283 281 281 282 279 283 280 279 276 272 273 273 276 285 286 291 298 297 296 295
311 309 305 298 293 292 293 289 285 268 258 268 278 279 276 280 284 289 290 294 292 287 287 285 290 287 284 285 284 285 282 280 279 276 269 273 275 275 286 287 293 294 293 292 292
308 304 298 296 289 292 289 283 268 261 270 268 273 278 276 274 280 283 282 281 281 278 272 280 284 288 288 282 285 283 278 270 268 269 268 279 275 279 283 287 292 290 290 291 291
302 299 296 293 290 290 284 273 260 258 262 276 277 277 270 278 277 278 279 277 284 283 277 274 274 284 288 284 281 280 278 274 262 266 272 280 276 276 284 286 290 289 289 289 289
300 290 289 291 291 286 277 262 261 263 277 275 276 266 266 276 274 272 272 277 283 285 277 275 276 288 287 290 287 282 277 283 277 278 275 276 279 283 285 284 285 285 285 285 286
289 287 288 291 288 281 271 267 265 277 279 278 269 272 263 267 272 270 274 280 282 286 286 281 275 284 285 288 287 286 286 278 279 272 270 275 276 275 280 281 283 283 283 285 286
287 280 287 286 282 274 264 260 266 280 281 277 274 271 272 272 272 271 275 280 286 284 285 285 281 281 286 283 282 283 282 282 282 279 273 271 273 282 283 284 283 284 284 285 286
282 273 287 285 272 260 264 263 279 280 282 280 280 277 274 274 273 272 276 280 286 285 278 284 282 277 280 287 289 286 280 282 278 274 275 276 273 283 283 285 285 285 285 286 286
277 277 285 283 266 268 265 270 276 279 277 279 278 280 281 272 273 277 278 284 285 283 279 284 278 274 277 280 283 280 281 282 283 282 275 269 273 283 282 282 285 285 285 286 287
278 272 275 273 271 269 265 267 269 278 279 281 280 280 279 272 279 275 277 282 284 283 287 287 281 276 272 275 278 276 280 280 280 276 275 275 276 279 280 280 282 283 284 285 286
276 272 273 266 269 271 274 273 270 270 278 280 275 278 278 271 274 272 278 279 282 283 281 283 277 278 277 278 279 277 276 280 278 278 275 277 276 279 280 280 281 283 284 284 284
277 275 276 267 277 276 274 274 273 272 277 275 273 277 280 273 276 275 277 277 276 280 278 280 278 276 272 276 278 276 276 278 278 278 279 279 277 282 283 283 282 282 283 282 282
280 281 280 277 276 272 272 276 276 277 278 279 278 277 276 278 279 281 281 281 280 278 276 275 273 272 270 272 272 273 276 276 279 279 278 276 280 283 281 281 281 282 282 282 282
Wind_Speed
7 7 7 8 8 9 10 10 11 11 10 11 12 12 14 18 15 3 7 8 4 6 5 4 6 5 4 2 4 3 6 14 22 19 11 3 2 2 2 5 3 2 2 5 6
8 8 9 9 11 10 11 12 12 11 12 12 15 12 14 16 5 7 8 12 9 6 2 5 5 5 2 0 1 3 6 14 4 4 5 8 8 9 7 6 6 4 3 2 11
8 9 10 11 10 11 12 13 13 12 12 12 13 12 13 6 7 5 4 14 14 12 5 2 1 2 1 1 4 4 14 7 14 11 9 11 12 7 9 14 3 4 3 5 8
10 11 12 10 11 13 13 14 14 14 13 12 12 13 12 4 5 3 4 4 11 6 3 3 3 2 2 4 3 6 4 2 3 8 9 12 12 11 12 7 12 15 5 3 9
10 12 9 9 10 13 14 15 15 15 14 13 13 11 4 4 10 7 15 10 4 3 1 3 5 4 4 3 3 9 7 5 5 8 8 11 16 16 25 13 18 14 11 7 6
9 9 10 11 12 14 15 16 16 16 15 13 12 10 1 17 4 5 5 3 2 3 2 3 4 5 4 5 6 3 4 8 5 6 7 11 16 13 15 2 8 11 14 8 7
10 11 11 12 13 14 15 16 16 17 16 15 12 3 9 19 2 3 3 3 3 5 5 5 4 4 3 3 5 4 8 10 10 5 8 8 17 33 5 9 17 14 13 9 6
11 11 12 13 14 15 16 17 18 18 17 16 13 3 9 2 1 4 4 5 5 5 6 4 6 6 5 4 5 4 3 6 5 10 9 8 24 19 6 8 14 14 13 11 8
13 14 14 14 14 14 15 16 17 17 17 14 8 4 9 7 3 6 7 5 3 3 5 2 4 6 5 5 9 8 14 10 8 8 6 16 16 10 14 15 13 9 13 11 6
15 9 9 8 10 12 12 13 12 4 4 6 4 4 5 4 3 2 3 5 5 3 7 8 8 5 7 9 17 9 10 9 13 6 12 15 18 12 15 9 9 12 14 12 5
9 8 8 10 10 8 5 5 6 3 3 6 4 4 5 6 4 5 3 4 5 6 6 8 8 15 23 25 19 2 11 13 14 14 9 9 18 16 15 13 11 7 10 10 6
11 11 9 8 6 5 4 4 2 3 9 4 5 7 6 2 5 7 6 4 4 9 5 5 20 23 16 19 21 17 9 16 11 11 9 13 20 18 15 18 18 13 10 7 5
12 7 5 5 8 5 3 3 1 2 1 7 4 4 5 3 6 7 10 3 6 8 11 18 17 6 15 15 20 21 22 17 12 1 14 14 15 13 14 15 13 17 14 6 7
9 4 2 9 5 1 2 2 4 4 7 7 4 3 3 3 7 6 7 6 5 7 10 13 15 21 16 24 21 21 25 18 15 4 6 8 10 11 16 16 14 13 11 9 7
6 4 8 4 5 3 0 2 4 5 5 8 8 4 9 4 7 2 3 5 10 15 4 12 12 11 15 17 21 14 11 17 17 9 2 15 10 11 14 16 15 10 10 7 6
8 11 11 4 3 1 2 5 5 10 7 9 6 8 9 5 4 7 3 5 7 12 12 23 4 5 5 7 21 5 3 10 5 3 8 20 12 8 9 12 14 8 10 9 7
14 12 6 2 2 2 3 5 7 7 5 11 7 10 7 7 7 3 5 6 4 7 8 8 4 4 4 6 9 8 4 4 6 8 10 4 14 13 9 13 13 15 12 8 8
13 10 7 3 2 3 4 8 7 3 6 6 7 13 2 7 4 6 6 5 5 5 7 6 7 1 5 6 6 18 11 5 9 6 5 5 5 1 4 9 16 13 13 10 9
8 3 3 5 3 3 7 7 7 6 4 9 10 6 8 5 1 9 2 3 4 4 5 5 6 2 6 3 5 9 12 16 11 3 5 4 3 5 5 9 13 13 13 11 10
3 3 2 6 4 5 8 1 2 3 4 4 5 1 4 7 8 7 5 4 6 3 5 5 9 2 2 3 2 4 5 5 4 4 4 3 6 5 3 6 8 12 12 10 12
5 4 3 4 5 8 5 6 3 5 4 3 4 5 5 6 2 5 6 9 4 9 13 6 4 7 3 4 6 2 0 1 0 1 3 4 4 8 5 4 8 9 13 10 8
3 3 3 3 7 2 3 6 4 4 3 4 4 4 5 5 5 4 5 6 8 11 11 4 4 4 5 1 2 3 7 3 2 1 3 4 4 9 8 6 7 9 10 9 11
3 2 2 4 4 2 4 3 2 2 1 3 3 2 5 4 6 4 5 6 7 9 7 7 4 5 9 5 6 7 18 4 3 3 8 5 4 5 11 10 7 9 9 8 9
4 3 5 6 0 7 3 3 3 6 1 2 4 4 7 4 4 7 8 8 13 10 16 4 8 9 6 3 5 8 23 18 5 9 13 10 11 8 10 7 7 9 8 8 8
4 3 4 1 4 4 1 5 2 3 2 2 4 4 5 4 5 4 6 11 7 16 11 6 5 6 5 7 5 23 22 22 25 10 11 11 16 10 8 7 6 6 7 9 8
6 5 2 2 2 4 2 1 1 4 2 3 2 6 5 3 3 6 7 5 4 12 10 10 5 3 4 9 11 19 27 21 14 13 12 13 14 8 8 7 8 8 9 10 9
1 2 5 1 2 4 3 2 3 1 3 3 2 4 4 4 6 11 8 9 9 9 8 6 4 6 6 11 6 18 17 15 12 17 5 12 7 5 10 12 10 9 10 10 9
Wind_Direction
0 0 350 338 332 332 332 329 329 327 320 320 323 328 330 326 335 337 290 227 213 311 358 350 37 7 34 8 345 342 257 245 237 240 247 313 301 293 243 257 166 207 228 285 144
326 325 326 327 323 322 321 319 320 323 326 325 319 329 323 334 335 279 256 273 249 281 357 39 12 24 9 236 307 211 242 255 302 323 14 351 11 319 290 284 265 200 245 348 161
322 316 308 315 320 313 308 311 314 312 319 320 316 312 325 23 341 254 248 72 70 42 34 59 6 50 0 264 205 225 245 293 295 319 360 332 322 330 312 260 238 234 247 234 190
307 313 297 302 306 306 305 308 311 313 313 309 311 317 324 61 302 254 269 136 25 43 62 20 67 118 249 222 248 267 265 275 319 302 314 299 306 289 272 264 316 319 186 228 188
305 310 313 297 301 304 300 301 304 305 301 304 307 310 359 281 248 272 294 316 50 62 76 176 186 166 218 230 272 253 281 299 300 295 296 290 269 267 274 282 285 279 270 245 232
309 311 313 305 297 297 299 300 300 301 298 296 296 308 304 271 229 228 265 319 49 112 197 155 201 223 236 218 198 265 300 280 273 274 278 278 279 265 248 286 307 310 275 250 217
303 301 302 296 295 294 293 294 296 293 295 291 295 306 264 249 214 185 135 211 203 183 217 205 201 189 201 287 250 256 278 277 258 235 251 278 269 246 193 241 277 284 279 283 278
295 295 288 287 287 288 290 291 295 296 296 294 291 277 258 289 215 258 202 257 239 244 214 210 186 189 189 282 331 305 254 243 214 203 219 229 256 283 214 222 247 266 260 263 278
292 288 291 290 297 293 291 296 295 298 304 285 258 164 261 331 289 267 174 219 159 178 198 200 142 198 147 214 263 198 251 245 264 214 208 207 260 252 261 255 263 258 258 256 273
299 306 316 315 317 310 308 304 298 348 10 60 45 47 284 260 262 275 222 187 205 242 263 226 215 210 177 189 229 203 223 243 237 236 224 230 246 256 274 257 260 251 243 239 233
313 309 296 303 306 319 8 360 13 360 23 202 210 251 291 288 270 246 209 149 219 202 228 196 216 215 209 205 232 218 211 229 235 237 252 256 252 247 246 254 252 242 236 229 183
298 288 287 293 292 78 68 71 99 202 307 284 258 258 275 249 293 258 151 191 196 240 234 227 239 234 231 215 216 232 226 235 263 244 204 246 255 255 240 244 244 247 232 219 157
283 293 298 298 102 48 82 98 49 82 329 302 249 260 282 160 268 282 170 211 214 242 239 239 251 235 216 206 211 217 222 226 224 70 223 249 269 261 252 240 240 229 231 179 169
276 276 244 128 61 169 55 2 72 86 63 290 344 314 313 272 273 216 210 212 209 256 250 253 270 246 214 215 200 225 211 220 228 215 237 185 272 238 233 227 212 221 196 157 135
224 170 137 77 146 73 143 45 90 56 28 299 302 301 317 211 309 341 193 193 255 266 241 263 276 232 210 212 196 245 217 213 216 216 329 261 269 246 209 200 190 163 119 118 100
137 126 114 63 56 51 41 65 48 43 271 331 321 338 355 317 290 298 301 230 259 275 260 262 248 241 211 202 189 195 199 192 187 185 243 244 220 234 193 198 168 133 123 120 111
106 83 65 65 129 38 69 47 35 110 335 316 332 340 337 289 314 295 321 306 311 304 317 305 224 198 205 150 176 190 166 154 188 198 237 211 187 248 330 311 146 137 117 105 94
97 78 62 53 25 83 57 49 65 241 262 306 315 317 316 341 290 315 312 327 245 265 286 326 320 228 183 213 176 188 170 220 200 178 199 153 221 316 34 34 100 102 100 100 88
101 25 49 349 43 57 69 51 200 211 309 334 323 18 320 325 288 1 290 286 291 330 310 303 266 231 230 259 196 160 207 237 302 236 107 125 145 119 71 68 85 96 97 92 79
82 61 18 327 61 64 73 152 192 248 326 325 343 39 303 303 343 19 315 254 288 326 311 271 288 267 317 264 261 230 136 167 181 242 117 128 74 41 72 78 99 97 94 85 74
58 57 282 47 52 49 109 215 276 274 304 313 314 304 268 299 276 294 281 294 340 313 318 280 263 308 316 355 360 343 189 241 331 313 134 119 56 359 69 105 105 100 94 97 114
99 51 310 58 51 35 105 190 252 342 275 266 257 250 253 297 283 285 291 285 345 323 321 299 309 309 271 316 330 327 352 294 284 95 43 85 58 356 23 104 104 97 97 79 74
98 205 346 81 104 56 304 274 225 321 336 320 295 330 280 276 308 291 309 283 334 321 323 329 355 324 334 23 34 10 344 329 26 1 23 82 92 37 41 42 60 87 78 79 73
89 56 340 49 247 124 115 300 328 325 253 279 296 290 310 311 231 302 303 304 330 339 339 354 21 43 73 13 332 13 25 30 54 71 88 60 104 61 49 38 46 57 63 64 64
37 236 178 257 341 97 98 168 13 343 291 210 332 283 334 301 308 291 314 308 332 358 353 30 51 29 65 29 35 40 26 35 52 30 62 81 69 52 47 44 42 68 74 71 60
134 135 31 129 154 110 6 264 209 283 178 295 180 312 302 247 266 300 335 356 332 327 344 347 337 359 6 355 24 46 20 18 20 25 56 69 63 44 56 64 61 70 83 80 80
202 56 99 313 94 87 220 211 234 143 286 243 250 302 299 258 248 263 251 275 272 314 316 354 348 10 329 348 351 38 6 4 41 37 6 52 40 43 46 48 27 47 58 64 66